Charlotte, NC

11:49 PM EDT on September 24, 2017 (GMT -0400)
Charlotte-Douglas International

Weather History for KCLT - October, 2002

Change the Weather History Date:

Tuesday, October 15, 2002

  Actual Average Record
Temperature  
Mean Temperature 52 °F 60 °F  
Max Temperature 55 °F 72 °F 88 °F (1985)
Min Temperature 50 °F 49 °F 30 °F (2006)
Degree Days  
Heating Degree Days 12 6  
Month to date heating degree days 60  
Since 1 July heating degree days 83  
Cooling Degree Days 0 1  
Month to date cooling degree days 28  
Year to date cooling degree days 1503  
Growing Degree Days 2 (Base 50)    
Moisture  
Dew Point 48 °F    
Average Humidity 89    
Maximum Humidity 100    
Minimum Humidity 64    
Precipitation  
Precipitation 0.73 in 0.11 in 1.83 in (1954)
Month to date precipitation 1.75  
Year to date precipitation 33.59  
Snow  
Snow 0.00 in 0.00 in 0.00 in ()
Month to date snowfall 0.0  
Since 1 July snowfall 0.0  
Since 1 September snowfall 0.0  
Snow Depth -    
Sea Level Pressure  
Sea Level Pressure 29.97 in    
Wind  
Wind Speed 9 mph (NNE)    
Max Wind Speed 14 mph    
Max Gust Speed 20 mph    
Visibility 6 miles    
Events Rain    
T = Trace of Precipitation, MM = Missing Value Source: NWS Daily Summary

Daily Weather History Graph

Daily Weather History Graph

Search for Another Location

Airport or City:

Trip Planner

Search our weather history database for the weather conditions in past years. The results will help you decide how hot, cold, wet, or windy it might be!

Date:

Astronomy

Oct. 15, 2002 Rise Set
Actual Time 7:29 AM EDT 6:48 PM EDT
Civil Twilight 7:04 AM EDT 7:14 PM EDT
Nautical Twilight 6:34 AM EDT 7:43 PM EDT
Astronomical Twilight 6:05 AM EDT 8:13 PM EDT
Moon 4:29 PM EDT (10/15) 2:03 AM EDT (10/15)
Length of Visible Light 12h 10m
Length of Day
11h 18m
Waxing Gibbous, 74% of the Moon is Illuminated
Oct 15
Waxing Gibbous
Oct 21
Full
Oct 29
Last Quarter
Nov 4
New
Nov 11
First Quarter

Hourly Weather History & Observations

Time (EDT) Temp. Dew Point Humidity Pressure Visibility Wind Dir Wind Speed Gust Speed Precip Events Conditions
12:51 AM 55.0 °F 45.0 °F 69% 30.15 in 10.0 mi NE 8.1 mph - N/A   Overcast
1:51 AM 55.9 °F 44.1 °F 64% 30.15 in 10.0 mi NE 5.8 mph - N/A   Overcast
2:51 AM 55.0 °F 45.0 °F 69% 30.13 in 10.0 mi NE 10.4 mph - N/A   Overcast
3:51 AM 54.0 °F 46.0 °F 75% 30.10 in 10.0 mi NE 13.8 mph 19.6 mph N/A   Overcast
4:51 AM 54.0 °F 46.0 °F 75% 30.08 in 10.0 mi NE 9.2 mph - N/A   Overcast
5:00 AM 53.6 °F 46.4 °F 77% 30.09 in 10.0 mi NNE 8.1 mph - N/A   Overcast
5:51 AM 54.0 °F 45.0 °F 72% 30.07 in 10.0 mi NE 9.2 mph 17.3 mph N/A   Overcast
6:51 AM 53.1 °F 46.0 °F 77% 30.05 in 10.0 mi NE 11.5 mph - N/A   Overcast
7:51 AM 53.1 °F 46.9 °F 80% 30.04 in 10.0 mi NNE 10.4 mph - N/A   Overcast
8:01 AM 53.6 °F 46.4 °F 77% 30.05 in 10.0 mi NNE 9.2 mph - N/A   Overcast
8:22 AM 51.8 °F 48.2 °F 88% 30.05 in 6.0 mi North 9.2 mph - 0.00 in Rain Light Rain
8:51 AM 51.1 °F 48.9 °F 92% 30.05 in 2.0 mi North 8.1 mph - 0.04 in Rain Rain
9:21 AM 50.0 °F 48.2 °F 94% 30.05 in 1.2 mi North 9.2 mph - 0.11 in Rain Heavy Rain
9:41 AM 50.0 °F 50.0 °F 100% 30.04 in 2.0 mi North 11.5 mph 17.3 mph 0.19 in Rain Rain
9:51 AM 50.0 °F 48.9 °F 96% 30.04 in 2.0 mi North 12.7 mph - 0.20 in Rain Light Rain
10:01 AM 50.0 °F 48.2 °F 94% 30.04 in 1.8 mi NNE 8.1 mph - 0.04 in Rain Heavy Rain
10:51 AM 50.0 °F 48.9 °F 96% 30.02 in 1.0 mi NNE 11.5 mph - 0.17 in Rain Rain
10:58 AM 50.0 °F 48.2 °F 94% 30.02 in 1.0 mi NNE 9.2 mph - 0.01 in Rain Rain
11:42 AM 50.0 °F 48.2 °F 94% 30.00 in 1.0 mi North 12.7 mph - 0.07 in Rain Light Rain
11:51 AM 50.0 °F 48.9 °F 96% 29.99 in 7.0 mi NNE 11.5 mph - 0.08 in Rain Light Rain
12:51 PM 50.0 °F 48.9 °F 96% 29.97 in 10.0 mi NNE 11.5 mph - 0.01 in Rain Light Rain
1:51 PM 50.0 °F 50.0 °F 100% 29.94 in 4.0 mi North 10.4 mph - 0.01 in Rain Light Rain
2:51 PM 50.0 °F 48.9 °F 96% 29.91 in 8.0 mi NNE 9.2 mph - 0.00 in   Overcast
3:51 PM 50.0 °F 50.0 °F 100% 29.88 in 4.0 mi North 11.5 mph - N/A   Overcast
4:51 PM 50.0 °F 50.0 °F 100% 29.86 in 2.5 mi North 10.4 mph - 0.00 in Rain Light Rain
5:19 PM 50.0 °F 50.0 °F 100% 29.85 in 3.0 mi North 9.2 mph - 0.01 in Rain Light Rain
5:51 PM 51.1 °F 50.0 °F 96% 29.83 in 3.0 mi North 10.4 mph - 0.02 in Rain Light Rain
6:51 PM 51.1 °F 50.0 °F 96% 29.82 in 9.0 mi North 9.2 mph - 0.00 in   Overcast
7:51 PM 51.1 °F 50.0 °F 96% 29.80 in 8.0 mi North 8.1 mph - 0.02 in Rain Light Rain
8:51 PM 51.1 °F 51.1 °F 100% 29.78 in 5.0 mi North 9.2 mph - 0.04 in Rain Light Rain
9:51 PM 52.0 °F 51.1 °F 97% 29.77 in 4.0 mi North 5.8 mph - 0.03 in Rain Rain
10:51 PM 52.0 °F 52.0 °F 100% 29.74 in 4.0 mi North 8.1 mph - 0.07 in Rain Light Rain
11:51 PM 52.0 °F 51.1 °F 97% 29.71 in 6.0 mi North 10.4 mph - 0.04 in Rain Light Rain